Location: Unspecified
(52.1384°N, 8.6525°W)
Time: 11:22:22
(UTC+00:00)

XW-2F - Pass Details

Date: 22 January 2021
Orbit: 500 x 519 km, 97.5° (Epoch: 24 February)

Event Time Altitude Azimuth Distance (km) Brightness Sun altitude
Rises 18:23:04 0° 190° (S) 2,605 ? -11.8°
Reaches altitude 10° 18:25:18 10° 200° (SSW) 1,729 ? -12.1°
Maximum altitude 18:28:38 31° 264° (W) 925 ? -12.6°
Drops below altitude 10° 18:32:02 10° 328° (NNW) 1,754 ? -13.1°
Sets 18:34:20 0° 339° (NNW) 2,650 ? -13.5°
